THORAD AGENA D DEB, 4653

Orbit data source: Space-Track

THORAD AGENA D DEB, 4653 is space debris in SSO originally from a launch on Wed, 08 Apr 1970 UTC launched from the Air Force Western Test Range (AFWTR). Debris objects in space refer to the collection of defunct objects orbiting the Earth. Examples of debris include non-operational satellites, rocket bodies, and fragments generated from explosions, collisions, or faulty payload assembly.

Loading next visibility...
Identifier
4653, 1970-025AM
Orbit
SSO
Country
Flag of USUS
Related business
Manufacturer
Unknown
Mission
Spacecraft
Bus & Motor
Unknown
Mass
Unknown
Launch date (UTC)
1970-04-08 (55 years ago)
Launch vehicle
Unknown
Launch site
Air Force Western Test Range (AFWTR)
Object type
Payload
Rocket body
Debris
Shape & HBR
Unknown
Radar Cross Section
Small (<0.1 m²)

Expand to show TLE details & history
Last TLE update: 20 hours ago

TLE from 20 hours ago
0 THORAD AGENA D DEB
1 04653U 70025AM  25261.14589466  .00008493  00000-0  18303-2 0  9992
2 04653  99.9938 154.4402 0017092  15.4547 344.7165 14.58654949827419
Epoch: 2025-09-18T03:30Z
TLE epoch observation values (Epoch: 2025-09-18T03:30:05.298Z)
Latitude
-0.00002°
Longitude
104.60644°
Altitude
688.776 km
Speed
7.518 km/s
True Right ascension
10h 17m 45s
True Declination
0° 00' 00"
Sunlit
Object was in daylight at epoch
Visualization orbit readout
Latitude
Unknown
Longitude
Unknown
Altitude
Unknown
Speed
Unknown
Apparent Right ascension
Unknown
Apparent Declination
Unknown
Sunlit
N/A
Visualization observer readout
Local Sidereal Time
16:22:28
Azimuth
Unknown
Elevation
Unknown
Doppler factor
Unknown
Orbital elements
Apogee altitude
706.783 km
Perigee altitude
682.606 km
Semi-major axis
7,072.832 km
Eccentricity
0.00171
Inclination
99.9938°
RAAN
154.4402°
Arg. of periapsis
15.4547°
True anomaly
344.66477°
Mean anomaly
344.7165°
Eccentric anomaly
344.69064°
Mean motion
3.64883 °/min
Orbital period
98.66 mins
BSTAR
0.0018303
Loading maneuver chart data...
Computing Atmospheric mass density...

Documentation

Showing up to 5 results
|